Location: Arena
(42.5007°N, 9.4650°E)
Time: 03:06:41
(UTC+00:00)

Cosmos 2333 Rocket - Pass Details

Date: 09 April 2020
Orbit: 841 x 861 km, 70.8° (Epoch: 02 June)

Event Time Altitude Azimuth Distance (km) Brightness Sun altitude
Rises 23:37:10 0° 341° (NNW) 3,405 6.1 -39.4°
Reaches altitude 10° 23:39:47 10° 349° (NNW) 2,468 5.3 -39.3°
Enters shadow 23:42:32 26° 8° (N) 1,610 4.1 -39.3°
